| time (UTC) | temp F | wind direction | speed MPH | gust MPH | rain 1hr in | rain 24hr in | rain mn in | humidity % | barometer mb |
| 20260905185356 | 82 | 204 | 1.0 | 4.0 | 0.00 | 0.00 | 0.00 | 73 | 1020.5 |
| 20260905184351 | 83 | 336 | 0.0 | 2.0 | 0.00 | 0.00 | 0.00 | 73 | 1020.3 |
| 20260905182350 | 83 | 336 | 1.0 | 3.0 | 0.00 | 0.00 | 0.00 | 74 | 1020.2 |
| 20260905181354 | 84 | 336 | 0.0 | 0.0 | 0.00 | 0.00 | 0.00 | 73 | 1020.2 |
| 20260905180350 | 84 | 336 | 0.0 | 0.0 | 0.00 | 0.00 | 0.00 | 73 | 1020.0 |
| 20260905175350 | 84 | 336 | 0.0 | 3.0 | 0.00 | 0.00 | 0.00 | 72 | 1019.9 |
| 20260905174351 | 84 | 336 | 1.0 | 3.0 | 0.00 | 0.00 | 0.00 | 72 | 1019.8 |
| 20260905173350 | 84 | 336 | 2.0 | 3.0 | 0.00 | 0.00 | 0.00 | 72 | 1019.8 |
| 20260905172357 | 85 | 336 | 2.0 | 4.0 | 0.00 | 0.00 | 0.00 | 71 | 1019.8 |
| 20260905171350 | 85 | 336 | 3.0 | 5.0 | 0.00 | 0.00 | 0.00 | 71 | 1019.8 |
| 20260905170351 | 85 | 351 | 3.0 | 5.0 | 0.00 | 0.00 | 0.00 | 69 | 1019.7 |
| 20260905164350 | 86 | 344 | 4.0 | 6.0 | 0.00 | 0.00 | 0.00 | 67 | 1019.6 |
| 20260905163351 | 86 | 345 | 4.0 | 8.0 | 0.00 | 0.00 | 0.00 | 66 | 1019.7 |
| 20260905162357 | 86 | 346 | 5.0 | 8.0 | 0.00 | 0.00 | 0.00 | 66 | 1019.7 |
| 20260905160353 | 87 | 15 | 5.0 | 10.0 | 0.00 | 0.00 | 0.00 | 65 | 1019.9 |
| 20260905155347 | 87 | 355 | 6.0 | 10.0 | 0.00 | 0.00 | 0.00 | 66 | 1019.8 |
| 20260905154346 | 87 | 355 | 6.0 | 11.0 | 0.00 | 0.00 | 0.00 | 66 | 1019.9 |
| 20260905153344 | 87 | 16 | 5.0 | 11.0 | 0.00 | 0.00 | 0.00 | 66 | 1019.9 |
| 20260905152344 | 88 | 355 | 5.0 | 11.0 | 0.00 | 0.00 | 0.00 | 66 | 1019.8 |
| 20260905151344 | 88 | 55 | 4.0 | 11.0 | 0.00 | 0.00 | 0.00 | 65 | 1019.8 |
| 20260905150346 | 88 | 58 | 5.0 | 10.0 | 0.00 | 0.00 | 0.00 | 65 | 1019.7 |
| 20260905145344 | 89 | 5 | 6.0 | 10.0 | 0.00 | 0.00 | 0.00 | 61 | 1019.7 |
| 20260905144344 | 89 | 344 | 6.0 | 10.0 | 0.00 | 0.00 | 0.00 | 63 | 1019.7 |
| 20260905143346 | 89 | 348 | 5.0 | 10.0 | 0.00 | 0.00 | 0.00 | 61 | 1019.8 |
| 20260905142344 | 90 | 30 | 4.0 | 9.0 | 0.00 | 0.00 | 0.00 | 59 | 1019.8 |
| 20260905140346 | 91 | 311 | 4.0 | 9.0 | 0.00 | 0.00 | 0.00 | 46 | 1019.9 |
| 20260905135343 | 91 | 302 | 3.0 | 8.0 | 0.00 | 0.00 | 0.00 | 45 | 1019.9 |
| 20260905134346 | 90 | 355 | 3.0 | 8.0 | 0.00 | 0.00 | 0.00 | 46 | 1019.9 |
| 20260905133345 | 89 | 311 | 4.0 | 9.0 | 0.00 | 0.00 | 0.00 | 56 | 1020.0 |
| 20260905132346 | 89 | 321 | 5.0 | 9.0 | 0.00 | 0.00 | 0.00 | 58 | 1020.1 |
| 20260905130340 | 89 | 321 | 4.0 | 9.0 | 0.00 | 0.00 | 0.00 | 63 | 1020.3 |
| 20260905125343 | 89 | 317 | 5.0 | 10.0 | 0.00 | 0.00 | 0.00 | 60 | 1020.3 |
| 20260905124348 | 89 | 343 | 4.0 | 9.0 | 0.00 | 0.00 | 0.00 | 57 | 1020.3 |
| 20260905122345 | 88 | 329 | 6.0 | 11.0 | 0.00 | 0.00 | 0.00 | 61 | 1020.4 |
| 20260905121340 | 88 | 26 | 4.0 | 10.0 | 0.00 | 0.00 | 0.00 | 63 | 1020.5 |
| 20260905120333 | 88 | 355 | 5.0 | 10.0 | 0.00 | 0.00 | 0.00 | 61 | 1020.6 |
| 20260905113337 | 88 | 34 | 4.0 | 9.0 | 0.00 | 0.00 | 0.00 | 63 | 1020.7 |
| 20260905112332 | 87 | 0 | 6.0 | 11.0 | 0.00 | 0.00 | 0.00 | 63 | 1020.7 |
| 20260905111331 | 88 | 347 | 6.0 | 11.0 | 0.00 | 0.00 | 0.00 | 64 | 1020.7 |
| 20260905110334 | 88 | 355 | 5.0 | 10.0 | 0.00 | 0.00 | 0.00 | 66 | 1020.7 |
| 20260905105332 | 88 | 348 | 6.0 | 11.0 | 0.00 | 0.00 | 0.00 | 63 | 1020.7 |
| 20260905104331 | 88 | 0 | 5.0 | 8.0 | 0.00 | 0.00 | 0.00 | 62 | 1020.6 |
| 20260905103332 | 87 | 14 | 5.0 | 10.0 | 0.00 | 0.00 | 0.00 | 63 | 1020.6 |
| 20260905102332 | 88 | 21 | 6.0 | 12.0 | 0.00 | 0.00 | 0.00 | 64 | 1020.7 |
| 20260905101330 | 88 | 355 | 6.0 | 12.0 | 0.00 | 0.00 | 0.00 | 61 | 1020.7 |
| 20260905100331 | 88 | 328 | 6.0 | 11.0 | 0.00 | 0.00 | 0.00 | 58 | 1020.6 |
| 20260905095336 | 88 | 316 | 6.0 | 10.0 | 0.00 | 0.00 | 0.00 | 54 | 1020.6 |
| 20260905094329 | 88 | 344 | 6.0 | 12.0 | 0.00 | 0.00 | 0.00 | 58 | 1020.6 |
| 20260905093323 | 88 | 317 | 5.0 | 11.0 | 0.00 | 0.00 | 0.00 | 57 | 1020.7 |
| 20260905091324 | 87 | 0 | 4.0 | 8.0 | 0.00 | 0.00 | 0.00 | 56 | 1020.6 |
| 20260905090323 | 87 | 0 | 4.0 | 9.0 | 0.00 | 0.00 | 0.00 | 59 | 1020.6 |
| 20260905083324 | 86 | 327 | 5.0 | 10.0 | 0.00 | 0.00 | 0.00 | 66 | 1020.7 |
| 20260905082320 | 86 | 345 | 5.0 | 11.0 | 0.00 | 0.00 | 0.00 | 67 | 1020.6 |
| 20260905081324 | 87 | 276 | 3.0 | 10.0 | 0.00 | 0.00 | 0.00 | 66 | 1020.6 |
| 20260905080318 | 87 | 16 | 2.0 | 6.0 | 0.00 | 0.00 | 0.00 | 61 | 1020.6 |
| 20260905075318 | 87 | 321 | 1.0 | 7.0 | 0.00 | 0.00 | 0.00 | 62 | 1020.5 |
| 20260905074320 | 86 | 246 | 4.0 | 7.0 | 0.00 | 0.00 | 0.00 | 63 | 1020.5 |
| 20260905073324 | 86 | 246 | 1.0 | 4.0 | 0.00 | 0.00 | 0.00 | 68 | 1020.5 |
| 20260905072319 | 85 | 256 | 3.0 | 8.0 | 0.00 | 0.00 | 0.00 | 69 | 1020.3 |
| 20260905071321 | 85 | 263 | 2.0 | 4.0 | 0.00 | 0.00 | 0.00 | 71 | 1020.5 |
| 20260905070320 | 85 | 277 | 2.0 | 6.0 | 0.00 | 0.00 | 0.00 | 73 | 1020.4 |
| 20260905065323 | 84 | 168 | 2.0 | 4.0 | 0.00 | 0.00 | 0.00 | 73 | 1020.3 |
| 20260905063321 | 83 | 206 | 2.0 | 3.0 | 0.00 | 0.00 | 0.00 | 71 | 1020.3 |
| 20260905061315 | 81 | 203 | 2.0 | 4.0 | 0.00 | 0.00 | 0.00 | 71 | 1020.5 |
| 20260905060321 | 80 | 204 | 2.0 | 4.0 | 0.00 | 0.00 | 0.00 | 69 | 1020.4 |
| 20260905055320 | 80 | 219 | 1.0 | 3.0 | 0.00 | 0.00 | 0.00 | 69 | 1020.3 |
| 20260905054313 | 79 | 198 | 3.0 | 6.0 | 0.00 | 0.00 | 0.00 | 68 | 1020.2 |
| 20260905053313 | 78 | 205 | 5.0 | 7.0 | 0.00 | 0.00 | 0.00 | 67 | 1020.2 |
| 20260905052311 | 78 | 194 | 3.0 | 5.0 | 0.00 | 0.00 | 0.00 | 67 | 1020.1 |
| 20260905051313 | 77 | 201 | 2.0 | 4.0 | 0.00 | 0.00 | 0.00 | 65 | 1020.0 |
| 20260905050311 | 77 | 196 | 3.0 | 6.0 | 0.00 | 0.00 | 0.00 | 64 | 1019.9 |
| 20260905042307 | 77 | 200 | 4.0 | 7.0 | 0.00 | 0.00 | 0.00 | 59 | 1019.6 |
| 20260905041306 | 77 | 250 | 4.0 | 6.0 | 0.00 | 0.00 | 0.00 | 59 | 1019.6 |
| 20260905040308 | 78 | 209 | 4.0 | 5.0 | 0.00 | 0.00 | 0.00 | 59 | 1019.6 |
| 20260905035306 | 78 | 175 | 5.0 | 7.0 | 0.00 | 0.00 | 0.00 | 58 | 1019.4 |
| 20260905034309 | 78 | 182 | 5.0 | 7.0 | 0.00 | 0.00 | 0.00 | 58 | 1019.4 |
| 20260905033305 | 78 | 188 | 4.0 | 6.0 | 0.00 | 0.00 | 0.00 | 59 | 1019.2 |
| 20260905032306 | 78 | 202 | 5.0 | 8.0 | 0.00 | 0.00 | 0.00 | 59 | 1019.2 |
| 20260905031302 | 78 | 218 | 4.0 | 7.0 | 0.00 | 0.00 | 0.00 | 59 | 1019.2 |
| 20260905030303 | 78 | 200 | 4.0 | 7.0 | 0.00 | 0.00 | 0.00 | 58 | 1019.2 |
| 20260905024305 | 78 | 209 | 4.0 | 7.0 | 0.00 | 0.00 | 0.00 | 58 | 1019.1 |
| 20260905023305 | 77 | 198 | 5.0 | 7.0 | 0.00 | 0.00 | 0.00 | 58 | 1019.1 |
| 20260905022305 | 77 | 182 | 4.0 | 7.0 | 0.00 | 0.00 | 0.00 | 58 | 1019.2 |
| 20260905021259 | 77 | 207 | 5.0 | 7.0 | 0.00 | 0.00 | 0.00 | 59 | 1019.1 |
| 20260905020259 | 77 | 198 | 4.0 | 7.0 | 0.00 | 0.00 | 0.00 | 59 | 1019.1 |
| 20260905015306 | 77 | 199 | 4.0 | 6.0 | 0.00 | 0.00 | 0.00 | 59 | 1019.2 |
| 20260905014301 | 76 | 184 | 4.0 | 6.0 | 0.00 | 0.00 | 0.00 | 60 | 1019.2 |
| 20260905012301 | 76 | 210 | 2.0 | 4.0 | 0.00 | 0.00 | 0.00 | 61 | 1019.2 |
| 20260905010258 | 77 | 207 | 0.0 | 0.0 | 0.00 | 0.00 | 0.00 | 62 | 1019.1 |
| 20260905005258 | 77 | 150 | 0.0 | 0.0 | 0.00 | 0.00 | 0.00 | 62 | 1019.1 |
| 20260905004300 | 77 | 148 | 0.0 | 0.0 | 0.00 | 0.00 | 0.00 | 62 | 1019.1 |
| 20260905003258 | 78 | 148 | 0.0 | 0.0 | 0.00 | 0.00 | 0.00 | 62 | 1019.0 |
| 20260905002259 | 78 | 148 | 1.0 | 3.0 | 0.00 | 0.00 | 0.00 | 61 | 1019.0 |
| 20260905000259 | 78 | 209 | 1.0 | 4.0 | 0.00 | 0.00 | 0.00 | 60 | 1019.2 |
| 20260904235305 | 78 | 199 | 3.0 | 4.0 | 0.00 | 0.00 | 0.00 | 59 | 1019.1 |
| 20260904234258 | 78 | 196 | 3.0 | 4.0 | 0.00 | 0.00 | 0.00 | 62 | 1019.2 |
| 20260904233258 | 78 | 186 | 3.0 | 5.0 | 0.00 | 0.00 | 0.00 | 63 | 1019.2 |
| 20260904232257 | 78 | 209 | 3.0 | 5.0 | 0.00 | 0.00 | 0.00 | 63 | 1019.3 |
| 20260904231256 | 78 | 209 | 3.0 | 4.0 | 0.00 | 0.00 | 0.00 | 66 | 1019.5 |
| 20260904230255 | 78 | 198 | 2.0 | 4.0 | 0.00 | 0.00 | 0.00 | 65 | 1019.5 |
| 20260904225259 | 79 | 212 | 0.0 | 0.0 | 0.00 | 0.00 | 0.00 | 67 | 1019.7 |
| 20260904224248 | 79 | 179 | 0.0 | 0.0 | 0.00 | 0.00 | 0.00 | 68 | 1019.7 |
| 20260904223248 | 79 | 179 | 3.0 | 6.0 | 0.00 | 0.00 | 0.00 | 68 | 1019.7 |
| 20260904222248 | 79 | 166 | 2.0 | 5.0 | 0.00 | 0.00 | 0.00 | 67 | 1019.6 |
| 20260904221250 | 79 | 200 | 3.0 | 5.0 | 0.00 | 0.00 | 0.00 | 68 | 1019.7 |
| 20260904220250 | 79 | 220 | 3.0 | 5.0 | 0.00 | 0.00 | 0.00 | 70 | 1019.7 |
| 20260904215245 | 79 | 200 | 3.0 | 5.0 | 0.00 | 0.00 | 0.00 | 72 | 1019.7 |
| 20260904214248 | 79 | 217 | 3.0 | 5.0 | 0.00 | 0.00 | 0.00 | 75 | 1019.7 |
| 20260904213244 | 80 | 219 | 3.0 | 5.0 | 0.00 | 0.00 | 0.00 | 76 | 1019.7 |
| 20260904212243 | 80 | 213 | 3.0 | 7.0 | 0.00 | 0.00 | 0.00 | 78 | 1019.8 |
| 20260904205243 | 80 | 210 | 4.0 | 6.0 | 0.00 | 0.00 | 0.00 | 78 | 1020.0 |
| 20260904204244 | 80 | 177 | 4.0 | 7.0 | 0.00 | 0.00 | 0.00 | 78 | 1019.9 |
| 20260904201249 | 80 | 259 | 4.0 | 6.0 | 0.00 | 0.00 | 0.00 | 78 | 1020.1 |
| 20260904200248 | 81 | 215 | 3.0 | 5.0 | 0.00 | 0.00 | 0.00 | 77 | 1020.2 |
| 20260904195253 | 81 | 225 | 2.0 | 4.0 | 0.00 | 0.00 | 0.00 | 77 | 1020.2 |
| 20260904194249 | 81 | 198 | 3.0 | 5.0 | 0.00 | 0.00 | 0.00 | 77 | 1020.2 |
| 20260904193242 | 82 | 205 | 1.0 | 3.0 | 0.00 | 0.00 | 0.00 | 77 | 1020.2 |
| 20260904192243 | 82 | 196 | 0.0 | 0.0 | 0.00 | 0.00 | 0.00 | 77 | 1020.1 |
| 20260904191245 | 82 | 196 | 0.0 | 0.0 | 0.00 | 0.00 | 0.00 | 77 | 1020.0 |
| 20260904190241 | 82 | 188 | 0.0 | 0.0 | 0.00 | 0.00 | 0.00 | 77 | 1019.8 |